Location: Blackie
(50.6050°N, 113.6230°W)
Time: 09:20:55
(UTC+00:00)

ISS - Pass Details

Date: 02 December 2021
Orbit: 413 x 422 km, 51.6° (Epoch: 27 January)

Event Time Altitude Azimuth Distance (km) Brightness Sun altitude
Rises 02:51:35 0° 286° (WNW) 2,386 1.2 -30.6°
Reaches altitude 10° 02:53:49 10° 276° (W) 1,515 0.0 -30.9°
Enters shadow 02:54:21 14° 272° (W) 1,318 -0.4 -31.0°
